TimeCST,TemperatureF,Dew PointF,Humidity,Sea Level PressureIn,VisibilityMPH,Wind Direction,Wind SpeedMPH,Gust SpeedMPH,PrecipitationIn,Events,Conditions,WindDirDegrees,DateUTC
12:15 AM,47.1,44.1,89,30.10,3.0,South,6.9,-,N/A,,Clear,170,2012-11-22 06:15:00
12:35 AM,47.1,43.7,88,30.10,4.0,SSE,5.8,-,N/A,,Clear,160,2012-11-22 06:35:00
12:55 AM,45.9,43.2,90,30.10,3.0,South,4.6,-,N/A,,Clear,170,2012-11-22 06:55:00
1:15 AM,46.4,43.2,88,30.10,4.0,South,4.6,-,N/A,,Clear,180,2012-11-22 07:15:00
1:35 AM,46.8,43.0,87,30.10,5.0,South,3.5,-,N/A,,Clear,190,2012-11-22 07:35:00
1:55 AM,46.9,43.0,86,30.09,5.0,South,5.8,-,N/A,,Clear,190,2012-11-22 07:55:00
2:15 AM,47.3,42.4,83,30.09,7.0,South,6.9,-,N/A,,Clear,170,2012-11-22 08:15:00
2:35 AM,47.3,42.3,83,30.08,7.0,SSE,8.1,-,N/A,,Clear,160,2012-11-22 08:35:00
2:55 AM,47.3,42.3,83,30.08,7.0,SSE,8.1,-,N/A,,Clear,160,2012-11-22 08:55:00
3:15 AM,47.5,42.3,82,30.07,7.0,South,8.1,-,N/A,,Clear,170,2012-11-22 09:15:00
3:35 AM,48.6,42.8,80,30.06,10.0,South,8.1,-,N/A,,Clear,170,2012-11-22 09:35:00
3:55 AM,48.4,42.8,81,30.05,10.0,South,8.1,-,N/A,,Clear,170,2012-11-22 09:55:00
4:15 AM,47.7,42.4,82,30.05,7.0,South,8.1,-,N/A,,Clear,170,2012-11-22 10:15:00
4:35 AM,47.7,42.4,82,30.05,10.0,South,8.1,-,N/A,,Clear,170,2012-11-22 10:35:00
4:55 AM,46.8,41.9,83,30.04,7.0,South,6.9,-,N/A,,Clear,170,2012-11-22 10:55:00
5:15 AM,46.4,41.9,84,30.04,10.0,SSE,6.9,-,N/A,,Clear,160,2012-11-22 11:15:00
5:35 AM,46.6,41.9,84,30.03,10.0,South,9.2,-,N/A,,Clear,180,2012-11-22 11:35:00
5:55 AM,47.8,42.3,81,30.03,10.0,South,6.9,-,N/A,,Clear,170,2012-11-22 11:55:00
6:15 AM,49.1,42.8,79,30.03,10.0,South,10.4,16.1,N/A,,Clear,180,2012-11-22 12:15:00
6:35 AM,49.3,42.8,78,30.03,10.0,South,10.4,16.1,N/A,,Clear,180,2012-11-22 12:35:00
6:55 AM,49.1,42.8,79,30.03,10.0,South,8.1,-,N/A,,Clear,170,2012-11-22 12:55:00
7:15 AM,48.2,42.8,82,30.03,10.0,SSE,8.1,-,N/A,,Clear,160,2012-11-22 13:15:00
7:35 AM,49.1,43.3,81,30.02,10.0,SSE,8.1,-,N/A,,Clear,160,2012-11-22 13:35:00
7:55 AM,50.9,43.9,77,30.01,7.0,South,9.2,-,N/A,,Clear,170,2012-11-22 13:55:00
8:15 AM,53.1,44.4,72,30.01,10.0,South,11.5,-,N/A,,Mostly Cloudy,180,2012-11-22 14:15:00
8:35 AM,54.3,44.2,69,30.01,10.0,South,13.8,-,N/A,,Mostly Cloudy,170,2012-11-22 14:35:00
8:55 AM,54.5,45.5,72,30.00,10.0,SSE,11.5,-,N/A,,Mostly Cloudy,160,2012-11-22 14:55:00
9:15 AM,56.7,44.6,64,30.00,10.0,South,12.7,18.4,N/A,,Overcast,180,2012-11-22 15:15:00
9:35 AM,57.0,44.4,63,30.00,10.0,South,13.8,21.9,N/A,,Scattered Clouds,180,2012-11-22 15:35:00
9:55 AM,57.0,44.1,62,29.99,10.0,South,15.0,-,N/A,,Scattered Clouds,180,2012-11-22 15:55:00
10:15 AM,57.7,44.2,61,29.99,10.0,South,15.0,19.6,N/A,,Clear,180,2012-11-22 16:15:00
10:35 AM,60.4,45.0,57,29.98,10.0,South,15.0,21.9,N/A,,Clear,180,2012-11-22 16:35:00
10:55 AM,60.4,44.4,56,29.97,10.0,South,13.8,21.9,N/A,,Clear,190,2012-11-22 16:55:00
11:15 AM,61.0,44.8,55,29.95,10.0,South,16.1,23.0,N/A,,Clear,190,2012-11-22 17:15:00
11:35 AM,61.7,45.0,54,29.94,10.0,South,13.8,-,N/A,,Clear,190,2012-11-22 17:35:00
11:55 AM,63.0,44.8,51,29.93,10.0,South,16.1,20.7,N/A,,Clear,190,2012-11-22 17:55:00
12:15 PM,64.0,44.4,49,29.92,10.0,South,16.1,25.3,N/A,,Clear,190,2012-11-22 18:15:00
12:35 PM,64.4,44.2,48,29.91,10.0,South,13.8,19.6,N/A,,Clear,190,2012-11-22 18:35:00
12:55 PM,65.3,44.8,47,29.90,10.0,SSW,18.4,33.4,N/A,,Clear,200,2012-11-22 18:55:00
1:15 PM,65.7,45.1,47,29.90,10.0,SSW,15.0,26.5,N/A,,Clear,200,2012-11-22 19:15:00
1:35 PM,66.4,45.3,47,29.88,10.0,South,13.8,18.4,N/A,,Clear,190,2012-11-22 19:35:00
1:55 PM,66.4,45.5,47,29.88,10.0,SSW,15.0,-,N/A,,Clear,200,2012-11-22 19:55:00
2:15 PM,66.4,45.5,47,29.87,10.0,South,10.4,18.4,N/A,,Clear,190,2012-11-22 20:15:00
2:35 PM,67.3,46.4,47,29.87,10.0,South,11.5,18.4,N/A,,Clear,190,2012-11-22 20:35:00
2:55 PM,68.2,47.1,47,29.87,10.0,SSW,15.0,18.4,N/A,,Clear,210,2012-11-22 20:55:00
3:15 PM,69.1,47.5,46,29.86,10.0,SSW,15.0,20.7,N/A,,Clear,200,2012-11-22 21:15:00
3:35 PM,69.8,48.2,46,29.86,10.0,South,12.7,20.7,N/A,,Clear,190,2012-11-22 21:35:00
3:55 PM,68.0,46.8,47,29.87,10.0,South,13.8,17.3,N/A,,Clear,190,2012-11-22 21:55:00
4:15 PM,66.9,46.6,48,29.87,10.0,South,11.5,-,N/A,,Scattered Clouds,190,2012-11-22 22:15:00
4:35 PM,66.0,46.8,50,29.88,10.0,South,11.5,16.1,N/A,,Scattered Clouds,190,2012-11-22 22:35:00
4:55 PM,65.7,46.8,50,29.88,10.0,SSW,13.8,-,N/A,,Scattered Clouds,200,2012-11-22 22:55:00
5:15 PM,65.8,47.1,51,29.91,10.0,SSW,11.5,18.4,N/A,Rain,Light Rain,210,2012-11-22 23:15:00
5:35 PM,63.5,49.3,60,29.91,10.0,SW,8.1,-,N/A,,Overcast,220,2012-11-22 23:35:00
5:55 PM,64.4,49.8,59,29.92,10.0,SW,8.1,-,N/A,,Overcast,220,2012-11-22 23:55:00
6:15 PM,62.6,53.6,72,29.94,7.0,WSW,20.7,33.4,N/A,Rain,Rain,240,2012-11-23 00:15:00
6:35 PM,60.8,54.3,79,29.95,10.0,WSW,13.8,19.6,0.03,Rain,Light Rain,240,2012-11-23 00:35:00
6:55 PM,59.9,54.5,82,29.94,10.0,SW,11.5,-,0.03,Rain-Thunderstorm,Light Thunderstorms and Rain,230,2012-11-23 00:55:00
7:15 PM,59.9,54.1,81,29.94,10.0,SSW,11.5,16.1,N/A,,Overcast,210,2012-11-23 01:15:00
7:35 PM,60.8,53.6,77,29.94,10.0,SW,8.1,-,N/A,,Overcast,230,2012-11-23 01:35:00
7:55 PM,59.4,53.8,82,29.95,10.0,WSW,6.9,-,N/A,,Mostly Cloudy,250,2012-11-23 01:55:00
8:15 PM,59.7,53.8,81,29.96,10.0,West,12.7,18.4,N/A,,Overcast,260,2012-11-23 02:15:00
8:35 PM,60.6,53.8,78,29.98,10.0,West,9.2,-,N/A,,Overcast,280,2012-11-23 02:35:00
8:55 PM,59.5,47.7,65,30.00,10.0,WNW,12.7,17.3,N/A,,Mostly Cloudy,300,2012-11-23 02:55:00
9:15 PM,57.7,44.4,61,30.01,10.0,WNW,15.0,25.3,N/A,,Mostly Cloudy,300,2012-11-23 03:15:00
9:35 PM,56.5,43.5,62,30.03,10.0,NW,20.7,27.6,N/A,,Overcast,310,2012-11-23 03:35:00
9:55 PM,53.8,41.7,64,30.05,10.0,NW,17.3,28.8,N/A,,Scattered Clouds,310,2012-11-23 03:55:00
10:15 PM,52.0,40.3,64,30.06,10.0,NW,15.0,21.9,N/A,,Clear,310,2012-11-23 04:15:00
10:35 PM,50.2,39.6,67,30.08,10.0,NW,16.1,23.0,N/A,,Clear,310,2012-11-23 04:35:00
10:55 PM,49.5,38.3,65,30.09,10.0,WNW,6.9,17.3,N/A,,Clear,300,2012-11-23 04:55:00
11:15 PM,48.6,38.3,68,30.10,10.0,WNW,12.7,19.6,N/A,,Clear,300,2012-11-23 05:15:00
11:35 PM,48.0,38.3,69,30.11,10.0,WNW,10.4,-,N/A,,Clear,290,2012-11-23 05:35:00
11:55 PM,47.7,37.4,68,30.12,10.0,WNW,12.7,19.6,N/A,,Clear,300,2012-11-23 05:55:00